Regional Weather Roundup
Issued by NWS

Home | Current Version | Previous Version | Text Only | Print | Product List | Glossary Off
Versions: 1 2 3 4 5 6 7 8 9 10 11 12 13 14 15 16 17 18 19 20 21 22 23 24 25 26 27 28 29 30 31 32 33 34 35 36 37 38 39 40 41 42 43 44 45 46 47 48 49 50

000
ASUS43 KLOT 231606
RWRIL

ILLINOIS REGIONAL WEATHER ROUNDUP
NATIONAL WEATHER SERVICE CHICAGO/ROMEOVILLE IL
1100 AM CDT WED JUL 23 2014

NOTE: "FAIR" INDICATES FEW OR NO CLOUDS BELOW 12,000 FEET WITH NO
SIGNIFICANT WEATHER AND/OR OBSTRUCTIONS TO VISIBILITY.

* THESE STATIONS ARE NOT UNDER NWS QUALITY CONTROL. THEY ALSO MAY NOT
  REPORT WEATHER SUCH AS PRECIPITATION OR FOG.

ILZ001-002-007-009-015-016-024-231700-
NORTHWEST ILLINOIS

CITY           SKY/WX    TMP DP  RH WIND       PRES   REMARKS
MOLINE         SUNNY     76  58  53 N15       30.17S
STERLING*      SUNNY     75  59  57 NE14      30.18S
SAVANNA*       SUNNY     76  53  44 NE13      30.20R
$$

ILZ003-004-008-010-011-017-018-231700-
NORTH CENTRAL ILLINOIS

CITY           SKY/WX    TMP DP  RH WIND       PRES   REMARKS
ROCKFORD       MOSUNNY   75  54  47 NE16      30.19S
FREEPORT*      SUNNY     71  57  61 NE12G17   30.22R
ROCHELLE*      SUNNY     73  55  52 NE14G20   30.17S
DE KALB*       SUNNY     71  55  57 N13G22    30.18S
PERU*          SUNNY     73  57  57 NE15G21   30.16S
$$

ILZ005-006-012>014-019>023-231700-
NORTHEAST ILLINOIS

CITY           SKY/WX    TMP DP  RH WIND       PRES   REMARKS
CHICAGO-OHARE  MOSUNNY   70  53  54 NE17G25   30.15F
CHICAGO-MIDWAY MOSUNNY   70  57  63 N21G28    30.15R
AURORA         SUNNY     73  54  51 N16       30.16R
LANSING*       MOSUNNY   67  57  70 NE18G25   30.14R
JOLIET*        SUNNY     72  54  53 NE12G23   30.15R
WAUKEGAN       SUNNY     68  55  63 N12G20    30.16S
DUPAGE AIRPORT SUNNY     74  55  51 NE14      30.15S
KANKAKEE*      SUNNY     71  58  64 N16G25    30.14R
WHEELING       SUNNY     69  55  60 N15G25    30.18S
MORRIS*        SUNNY     74  58  56 CALM      30.14R
ROMEOVILLE*    SUNNY     71  54  55 NE16G28   30.14S
NORTHERLY ISL    N/A     65  56  72 N20         N/A
$$

LMZ740>746-231700-
SOUTHERN LAKE MICHIGAN

STATION/POSITION SKY/WX   TEMP    WIND        PRES    VSBY  WAVE
                          AIR SEA DIR/SP/G                  HT/PER
                          (F)     (DEG/KT/KT) (MB)    (MI)  (FT/S)
SOUTHERN BUOY              60 59  350/ 19/ 21 1020.9R         5/ 6
WAUKEGAN HARBOR            63      10/ 20/ 25 1022.4S
HARRISON CRIB              62     360/ 24/ 27   N/A
BURNHAM HARBOR             65      20/ 11/ 18   N/A
CALUMET HARBOR             65     350/ 15/ 22 1019.8R
MICHIGAN CITY              64     340/ 23/ 26   N/A
$$

ILZ025>027-034>036-040-047-049-050-058-095>099-231700-
WEST-CENTRAL ILLINOIS

CITY           SKY/WX    TMP DP  RH WIND       PRES   REMARKS
QUINCY         PTSUNNY   78  69  73 NE13      30.12S HX  80
GALESBURG*     SUNNY     76  62  62 N14       30.16S
MACOMB*        SUNNY     74  62  67 NE10      30.17S
JACKSONVILLE*  SUNNY     79  68  70 N12       30.12S HX  81
PITTSFIELD*    MOSUNNY   79  67  67 NE10      30.12S HX  81
$$

ILZ028>032-037-038-041>044-048-051>054-059>061-231700-
CENTRAL ILLINOIS

CITY           SKY/WX    TMP DP  RH WIND       PRES   REMARKS
PONTIAC        SUNNY     73  59  60 NE15      30.14R
BLOOMINGTON    SUNNY     73  58  59 NE18      30.15R
PEORIA         SUNNY     78  58  49 NE16      30.13S
LACON*         SUNNY     73  57  57 NE10      30.14S
LINCOLN*       MOSUNNY   77  61  58 N13       30.10R
SPRINGFIELD    PTSUNNY   78  64  61 NE13      30.11R HX  80
TAYLORVILLE    CLOUDY    73  64  73 N13       30.11R
$$

ILZ033-039-045-046-055>057-062-063-231700-
EAST-CENTRAL ILLINOIS

CITY           SKY/WX    TMP DP  RH WIND       PRES   REMARKS
CHAMPAIGN      PTSUNNY   73  62  68 NE14      30.10R
RANTOUL*       SUNNY     76  58  54 N15G22    30.12R
MATTOON        CLOUDY    69  63  81 N10       30.08R
PARIS*         CLOUDY    70  66  88 N9        30.08R
$$

ILZ079-100>102-231700-
SOUTHWEST ILLINOIS

CITY           SKY/WX    TMP DP  RH WIND       PRES   REMARKS
ALTON          CLOUDY    75  75 100 N15       30.09R FOG
BELLEVILLE     PTSUNNY   81  78  91 NE5       30.05R HX  89
CAHOKIA*       CLOUDY    84  75  74 N12       30.05R HX  92
SPARTA*        LGT RAIN  73  70  88 SE12G17   30.07R
$$

ILZ064>066-069>071-074>076-080>082-084>086-088>090-092>094-231700-
SOUTH-CENTRAL ILLINOIS

CITY           SKY/WX    TMP DP  RH WIND       PRES   REMARKS
CARBONDALE     TSTM      71  67  87 SE21G30   30.06R FOG
CAIRO*         CLOUDY    80  71  74 NE23G30   30.07R HX  83
MARION         TSTM      72  68  88 S16       30.10R
MT. VERNON     CLOUDY    72  66  83 S12       30.07S
CENTRALIA*     CLOUDY    76  68  75 S9        30.06F
SALEM*         CLOUDY    76  72  86 SW6       30.06F
METROPOLIS*    TSTM      72  69  89 SE8       30.09F
$$

ILZ067-068-072-073-078-083-087-091-231700-
SOUTHEAST ILLINOIS

CITY           SKY/WX    TMP DP  RH WIND       PRES   REMARKS
FLORA*         CLOUDY    74  70  88 SW6       30.05R
FAIRFIELD*     CLOUDY    72  72 100 SW7       30.04F
HARRISBURG*    TSTM      69  69 100 S15       30.06F
ROBINSON*      CLOUDY    74  72  93 W6        30.06R
$$

ABBREVIATIONS USED IN REMARKS
   TC - TEMPERATURE IN CELSIUS
  WCI - WIND CHILL INDEX
   HX - HEAT INDEX
  VSB - VISIBILITY
$$



USA.gov is the U.S. government's official web portal to all federal, state and local government web resources and services.